180  
ASUS44 KLUB 131510  
RWRLUB  
WEST TEXAS WEATHER ROUNDUP  
NATIONAL WEATHER SERVICE LUBBOCK TX  
1000 AM CDT THU AUG 13 2020  
 
NOTE: "FAIR" INDICATES FEW OR NO CLOUDS BELOW 12,000 FEET WITH NO  
SIGNIFICANT WEATHER AND/OR S TO VISIBILITY
.  
 
TXZ004-006>008-010-012-014-016-OKZ002-131600-  
TEXAS PANHANDLE/OKLAHOMA PANHANDLE  
 
CITY SKY/WX TMP DP RH WIND PRES REMARKS
 
AMARILLO SUNNY 79 57 46 NW21G28 30.00S  
BORGER PTSUNNY 77 66 68 NW13G18 30.00R  
CANADIAN SUNNY 82 63 51 E5 29.92S  
DALHART SUNNY 76 66 71 N12 30.09R  
DUMAS PTSUNNY 74 67 76 NW17 30.06R  
GUYMON CLOUDY 75 71 87 N16 30.01S  
HEREFORD SUNNY 91 49 24 NW16G23 30.05F  
PAMPA SUNNY 82 59 46 NW16 29.99R  
PERRYTON SUNNY 76 67 73 N12 29.97R  

 
 
TXZ026-029-035-045-048-131600-  
SOUTHERN PANHANDLE/SOUTH PLAINS/ROLLING PLAINS  
 
CITY SKY/WX TMP DP RH WIND PRES REMARKS
 
CHILDRESS SUNNY 90 60 36 SW10 29.94R  
SEMINOLE SUNNY 86 59 40 SW9 30.10R  
LUBBOCK MOSUNNY 87 59 38 SW14 30.02S  
PLAINVIEW SUNNY 85 58 38 W17 30.01S  
SNYDER SUNNY 84 62 46 S14 30.02S  

 
 
TXZ052-054-060>062-072-078-127-140-154-169-131600-  
PERMIAN BASIN/CONCHO VALLEY/BIG COUNTRY/EDWARDS PLATEAU  
 
CITY SKY/WX TMP DP RH WIND PRES REMARKS
 
ABILENE SUNNY 87 68 52 SW18 30.00R  
BIG SPRING SUNNY 85 62 45 S20 30.03S  
BRADY SUNNY 86 68 54 S13G20 30.02F  
JUNCTION SUNNY 85 70 60 S12 30.04S  
MIDLAND SUNNY 85 60 42 S14 30.04R  
ODESSA SUNNY 85 59 41 S16 30.05R  
SAN ANGELO SUNNY 87 67 51 S14 30.01S  
SONORA SUNNY 84 66 54 CALM 30.08F  
SWEETWATER SUNNY 87 62 43 S20G25 30.04R  
WINK SUNNY 86 58 38 S8 30.01R  

 
 
TXZ055-058-074-075-080-082-131600-  
FAR WEST/SOUTHWEST MOUNTAINS/TRANS PECOS  
 
CITY SKY/WX TMP DP RH WIND PRES REMARKS
 
ALPINE SUNNY 84 51 31 SW8 30.20R  
DRYDEN N/A 83 65 54 SE9 30.03S  
EL PASO MOSUNNY 88 47 24 N3 30.08R  
FORT STOCKTON SUNNY 87 57 35 S6 30.04R  
GUADALUPE PASS SUNNY 80 47 31 W9 30.23R  
MARFA SUNNY 79 54 41 SE3 30.20S  
PECOS SUNNY 82 56 40 CALM 30.00S  
PRESIDIO FAIR 88 57 35 E5 30.05S  

 
 
TXZ014-016-019-021>030-083-131600  
TEXAS TECH WEST TEXAS MESONET/TEXAS PANHANDLE/NORTHERN SOUTH PLAINS  
 
CITY SKY/WX TMP DP RH WIND PRES REMARKS
 
ABERNATHY 5ENE N/A 87 58 37 SW13 N/A  
AMARILLO 9NNE N/A 78 61 55 W13 N/A  
AMARILLO 7SSE N/A 83 52 34 NW14 N/A  
AMHERST 1NE N/A 88 55 31 W14 N/A  
BOOTLEG 11WNW N/A 85 49 29 W14 N/A  
CANADIAN 6E N/A 83 65 54 SE8 N/A  
CAPROCK CYN SP N/A 88 55 32 SW9 N/A  
CHILDRESS 2NNE N/A 91 59 35 S10G21 N/A  
CLARENDON 2WSW N/A 86 53 32 SW9 N/A  
CLAUDE 12SW N/A 87 49 26 W9 N/A  
DIMMITT 2NE N/A 89 52 27 W18 N/A  
FLOYDADA 2NNE N/A 84 57 39 SW15 N/A  
FRIONA 2NE N/A 87 52 29 W13 N/A  
GOODLETT 3W N/A 93 59 32 S14 N/A  
HART 3N N/A 85 56 36 SW13 N/A  
HEREFORD 2NW N/A 90 49 24 W15 N/A  
MCLEAN 1E N/A 90 55 30 W12 N/A  
MEMPHIS 1NE N/A 90 58 34 S7 N/A  
MULESHOE 2SSW N/A 82 55 39 W9 N/A  
OLTON 6S N/A 88 55 32 SW14 N/A  
PALO DURO SP N/A 89 48 24 NW16 N/A  
PAMPA 2E N/A 82 55 39 NW10 N/A  
PLAINVIEW 1S N/A 86 57 36 SW13 N/A  
SILVERTON 7ESE N/A 87 58 37 SW21 N/A  
TULIA 2ENE N/A 88 54 31 W21 N/A  
TURKEY 2WSW N/A 90 60 36 SW14 N/A  
UMBARGER 3NNE N/A 87 53 31 W15 N/A  

 
 
TXZ033>036-039>041-045>048-131600  
TEXAS TECH WEST TEXAS MESONET/SOUTH PLAINS  
 
CITY SKY/WX TMP DP RH WIND PRES REMARKS
 
AIKEN 3WSW N/A 85 60 42 SW13 N/A  
ANDREWS 2NE N/A 87 58 38 S10 N/A  
ANTON 6SSW N/A 87 55 33 SW14 N/A  
BROWNFIELD 2S N/A 86 59 39 S16 N/A  
DENVR CTY 7WNW N/A 85 59 41 SW8 N/A  
GAIL 2ESE N/A 85 57 38 S14 N/A  
LAMESA 2SE N/A 86 58 38 S15 N/A  
LUBBOCK 3WNW N/A 86 59 38 SW14 N/A  
MORTON 1ENE N/A 86 55 34 SW13 N/A  
ODONNELL 1N N/A 85 60 42 S14 N/A  
PLAINS 3N N/A 86 57 37 SW8 N/A  
RALLS 1SE N/A 85 56 37 SW20 N/A  
REESE CENTER N/A 86 59 39 SW15 N/A  
SEAGRAVES 1SW N/A 85 59 41 S12 N/A  
SEMINOLE 2NNE N/A 87 59 38 S8 N/A  
SLATON 2NE N/A 85 59 40 SW22 N/A  
SNYDER 3E N/A 87 62 43 S13 N/A  
SUNDOWN 8SW N/A 87 54 31 SW10 N/A  
TAHOKA 3NNE N/A 84 60 44 S18 N/A  
WOLFFORTH 6SSW N/A 85 59 41 SW17 N/A  

 
 
TXZ031-032-036>038-042>044-131600-  
TEXAS TECH WEST TEXAS MESONET/ROLLING PLAINS  
 
CITY SKY/WX TMP DP RH WIND PRES REMARKS
 
ASPERMONT 3NE N/A 92 64 39 SW16 N/A  
FLUVANNA 3WNW N/A 84 61 45 SW13 N/A  
GRAHAM 5SSW N/A 86 57 37 S14 N/A  
GUTHRIE 10WSW N/A 91 56 30 SW17 N/A  
HASKELL 1NW N/A 88 64 45 SW17 N/A  
JAYTON 1SSE N/A 90 61 37 S16 N/A  
KNOX CITY 3NW N/A 90 63 40 SW15 N/A  
LK A HENRY 1NW N/A 87 61 42 SW9 N/A  
NORTHFIELD 1S N/A 93 56 28 W10 N/A  
ODELL 4ENE N/A 93 63 36 S12 N/A  
PADUCAH 10SW N/A 92 57 30 SW15 N/A  
POST 1NE N/A 87 56 35 SW14 N/A  
RRING SPRGS 3N N/A 90 59 35 SW21G30 N/A  
SEYMOUR 3NW N/A 93 63 36 SW16 N/A  
SPUR 1W N/A 90 59 35 SW15 N/A  
WEINERT 2NNE N/A 90 64 40 SW14 N/A  

 
 
TXZ052-054-060>062-072-078-127-140-154-169-131600-  
TEXAS TECH WEST TEXAS MESONET/PERMIAN BASIN/  
CONCHO VALLEY/BIG COUNTRY/EDWARDS PLATEAU  
 
CITY SKY/WX TMP DP RH WIND PRES REMARKS
 
COYANOSA 2N N/A 87 56 34 S5 N/A  
JUNCTION 1SSW N/A 86 69 56 S8 N/A  
MERTZON 3NNE N/A 86 67 53 S8 N/A  
SAN ANGELO 7NW N/A 87 66 49 S9 N/A  
STRLNG CT 4WSW N/A 87 65 47 SE13 N/A  
ST LAWRNCE 5SW N/A 84 64 50 S15 N/A  
SWEETWATR 11SW N/A 86 64 48 S17 N/A  
WALL 1E N/A 86 69 57 S12 N/A  

 
 
TXZ055-058-074-075-080-082-131600-  
TEXAS TECH WEST TEXAS MESONET/FAR WEST/SOUTHWEST MOUNTAINS/TRANS PECOS  
 
CITY SKY/WX TMP DP RH WIND PRES REMARKS
 
PRSMN GAP BBNP N/A 86 59 39 S5 N/A  
GUADLPE MTN NP N/A 88 44 21 S8 N/A  

 
 
 
CLICK HERE TO GO TO PREVIOUS BULLETINS.

The Nexlab TX Page Main Text Page